Location: Ch�tillon
(48.8024°N, 2.2935°E)
Time: 01:54:51
(UTC+00:00)

Oscar 19 - Pass Details

Date: 04 July 2022
Orbit: 773 x 790 km, 98.8° (Epoch: 08 August)

Event Time Altitude Azimuth Distance (km) Brightness Sun altitude
Rises 02:07:26 0° 29° (NNE) 3,262 16.0 -12.5°
Reaches altitude 10° 02:10:38 10° 50° (NE) 2,328 14.4 -12.2°
Maximum altitude 02:13:51 17° 89° (E) 1,903 13.1 -11.9°
Drops below altitude 10° 02:17:03 10° 128° (SE) 2,317 13.0 -11.6°
Sets 02:20:12 0° 149° (SSE) 3,240 13.6 -11.3°
